Location: Poughquag
(41.6090°N, 73.6820°W)
Time: 11:33:26
(UTC-05:00)

Envisat - Visible Passes

Search period start: 17 January 2020 00:00
Search period end: 27 January 2020 00:00
Orbit: 764 x 766 km, 98.1° (Epoch: 17 January)

Date Brightness Start Highest point End Pass type
(mag) Time Alt. Az. Time Alt. Az. Time Alt. Az.
17 Jan 4.2 06:12:11 10° NNE 06:17:04 46° E 06:21:56 10° S visible
17 Jan 3.0 17:26:44 10° SSE 17:31:43 61° ENE 17:36:44 10° N visible
17 Jan 6.0 19:08:07 10° SW 19:11:09 16° W 19:14:10 10° NW visible
18 Jan 5.7 05:36:16 10° NE 05:40:03 21° E 05:43:50 10° SE visible
18 Jan 4.7 18:29:27 10° SSW 18:34:03 34° W 18:38:41 10° NNW visible
19 Jan 3.2 06:37:30 10° NNE 06:42:37 81° ESE 06:47:41 10° S visible
19 Jan 3.2 17:52:06 10° S 17:57:10 78° WSW 18:02:17 10° NNW visible
20 Jan 4.7 06:01:03 10° NNE 06:05:44 36° E 06:10:23 10° SSE visible
20 Jan 5.7 18:56:04 10° SW 18:59:44 20° W 19:03:25 10° NW visible
21 Jan 6.0 05:25:29 10° NE 05:28:39 16° E 05:31:48 10° SE visible
21 Jan 4.3 18:17:53 10° S 18:22:43 44° W 18:27:34 10° NNW visible
22 Jan 3.6 06:26:15 10° NNE 06:31:19 64° ESE 06:36:20 10° S visible
22 Jan 3.0 17:40:48 10° SSE 17:45:52 84° ENE 17:50:59 10° NNW visible
22 Jan 6.3 19:24:14 10° WSW 19:25:31 11° W 19:26:50 10° WNW visible
23 Jan 5.2 05:50:00 10° NE 05:54:23 29° E 05:58:44 10° SSE visible
23 Jan 5.3 18:44:12 10° SSW 18:48:21 25° W 18:52:31 10° NW visible
24 Jan 6.2 05:15:01 10° ENE 05:17:14 13° E 05:19:27 10° ESE visible
24 Jan 3.8 18:06:25 10° S 18:11:22 56° W 18:16:23 10° NNW visible
25 Jan 4.1 06:15:03 10° NNE 06:20:00 50° E 06:24:54 10° S visible
25 Jan 3.0 17:29:36 10° SSE 17:34:37 67° ENE 17:39:40 10° N visible
25 Jan 6.1 19:11:25 10° WSW 19:14:05 14° W 19:16:47 10° WNW visible
26 Jan 5.6 05:39:01 10° NE 05:43:00 23° E 05:46:57 10° SE visible
26 Jan 4.9 18:32:29 10° SSW 18:36:59 32° W 18:41:30 10° NNW visible
